This is the latest recevied weather packets stored in our database for station/object N1UNH. If no packets are shown the sender has not sent any weather packets the latest 10 day(s).
| Time | Temp. | Humidity | Pressure | Rain* | Wind** | Luminosity | Snow |
|---|---|---|---|---|---|---|---|
| 1777585002 | 10° C | 91% | 1011.1 hPa | 0 mm | - | 78 W/m² | - |
| 1777584699 | 10° C | 90% | 1011.3 hPa | 0 mm | - | 56 W/m² | - |
| 1777584396 | 10° C | 89% | 1011.5 hPa | 0 mm | - | 43 W/m² | - |
| 1777584093 | 10° C | 91% | 1011.4 hPa | 0 mm | - | 35 W/m² | - |
| 1777583792 | 10° C | 91% | 1011.4 hPa | 0 mm | - | 50 W/m² | - |
| 1777583488 | 10° C | 91% | 1011 hPa | 0 mm | - | 79 W/m² | - |
| 1777583187 | 10° C | 90% | 1010.9 hPa | 0 mm | - | 53 W/m² | - |
| 1777582883 | 10° C | 89% | 1011.1 hPa | 0 mm | - | 61 W/m² | - |
| 1777582580 | 10.56° C | 89% | 1010.9 hPa | 0 mm | - | 59 W/m² | - |
| 1777582275 | 10.56° C | 89% | 1011.1 hPa | 0 mm | - | 73 W/m² | - |
| 1777581973 | 10.56° C | 87% | 1011.1 hPa | 0 mm | - | 119 W/m² | - |
| 1777581669 | 10.56° C | 90% | 1010.9 hPa | 0 mm | - | 112 W/m² | - |
| 1777581363 | 10.56° C | 90% | 1010.8 hPa | 0 mm | - | 101 W/m² | - |
| 1777581057 | 10.56° C | 89% | 1010.9 hPa | 0 mm | - | 128 W/m² | - |
| 1777580756 | 10.56° C | 90% | 1011 hPa | 0 mm | - | 140 W/m² | - |
| 1777580454 | 10.56° C | 91% | 1011 hPa | 0 mm | - | 181 W/m² | - |
| 1777580154 | 10° C | 92% | 1011.1 hPa | 0 mm | - | 203 W/m² | - |
| 1777579851 | 10° C | 91% | 1011.2 hPa | 0 mm | - | 143 W/m² | - |
| 1777579550 | 10° C | 91% | 1011.2 hPa | 0 mm | - | 124 W/m² | - |
| 1777579250 | 10° C | 91% | 1011.2 hPa | 0 mm | - | 131 W/m² | - |
| 1777578946 | 10° C | 92% | 1011.2 hPa | 0 mm | - | 156 W/m² | - |
| 1777578641 | 10° C | 92% | 1011.3 hPa | 0 mm | - | 125 W/m² | - |
| 1777578341 | 10° C | 93% | 1011.3 hPa | 0 mm | - | 91 W/m² | - |
| 1777578038 | 10° C | 93% | 1011.2 hPa | 0 mm | - | 73 W/m² | - |
| 1777577738 | 10° C | 93% | 1011.5 hPa | 0 mm | - | 72 W/m² | - |
* Rain latest hour (hover to see other rain measurements)
** Current wind speed in m/s (hover to see current wind gust speed)